Time,TemperatureF,DewpointF,PressureIn,WindDirection,WindDirectionDegrees,WindSpeedMPH,WindSpeedGustMPH,Humidity,HourlyPrecipIn,Conditions,Clouds,dailyrainin,SoftwareType,DateUTC
2013-12-19 00:00:00,20.0,17.0,30.19,West,264,0.0,0.0,88,0.00,,---,0.00,VWS V14.01,2013-12-19 05:00:00,
2013-12-19 00:01:00,20.0,17.0,30.19,West,264,0.0,0.0,88,0.00,,---,0.00,VWS V14.01,2013-12-19 05:01:00,
2013-12-19 00:06:00,19.9,16.9,30.19,West,264,0.0,0.0,88,0.00,,---,0.00,VWS V14.01,2013-12-19 05:06:00,
2013-12-19 00:11:00,19.9,17.2,30.19,West,264,0.0,0.0,89,0.00,,---,0.00,VWS V14.01,2013-12-19 05:11:00,
2013-12-19 00:16:00,19.8,17.1,30.19,West,264,0.0,0.0,89,0.00,,---,0.00,VWS V14.01,2013-12-19 05:16:00,
2013-12-19 00:21:00,19.6,16.9,30.19,West,264,0.0,0.0,89,0.00,,---,0.00,VWS V14.01,2013-12-19 05:21:00,
2013-12-19 00:26:00,19.4,16.7,30.19,West,264,0.0,0.0,89,0.00,,---,0.00,VWS V14.01,2013-12-19 05:26:00,
2013-12-19 00:30:00,19.2,16.2,30.17,SE,133,0.0,3.0,88,0.00,,---,0.00,VWS V14.01,2013-12-19 05:30:00,
2013-12-19 00:31:00,19.4,17.0,30.19,West,264,0.0,0.0,90,0.00,,---,0.00,VWS V14.01,2013-12-19 05:31:00,
2013-12-19 00:36:00,19.4,17.0,30.19,SE,139,0.0,1.0,90,0.00,,---,0.00,VWS V14.01,2013-12-19 05:36:00,
2013-12-19 00:41:00,19.4,17.0,30.19,SE,139,0.0,1.0,90,0.00,,---,0.00,VWS V14.01,2013-12-19 05:41:00,
2013-12-19 00:46:00,19.3,16.9,30.19,SE,139,0.0,1.0,90,0.00,,---,0.00,VWS V14.01,2013-12-19 05:46:00,
2013-12-19 00:51:00,19.2,16.8,30.18,SE,139,0.0,1.0,90,0.00,,---,0.00,VWS V14.01,2013-12-19 05:51:00,
2013-12-19 00:56:00,19.2,16.8,30.17,SE,139,0.0,1.0,90,0.00,,---,0.00,VWS V14.01,2013-12-19 05:56:00,
2013-12-19 01:00:00,18.7,16.0,30.19,SE,132,0.0,1.0,89,0.00,,---,0.00,VWS V14.01,2013-12-19 06:00:00,
2013-12-19 01:01:00,18.9,16.5,30.18,SE,138,0.0,1.0,90,0.00,,---,0.00,VWS V14.01,2013-12-19 06:01:00,
2013-12-19 01:06:00,18.8,16.4,30.19,SE,139,0.0,0.0,90,0.00,,---,0.00,VWS V14.01,2013-12-19 06:06:00,
2013-12-19 01:11:00,19.0,16.6,30.19,SE,139,0.0,1.0,90,0.00,,---,0.00,VWS V14.01,2013-12-19 06:11:00,
2013-12-19 01:16:00,19.1,16.7,30.19,SE,142,2.0,3.0,90,0.00,,---,0.00,VWS V14.01,2013-12-19 06:16:00,
2013-12-19 01:21:00,19.8,17.4,30.19,SE,133,1.0,3.0,90,0.00,,---,0.00,VWS V14.01,2013-12-19 06:21:00,
2013-12-19 01:26:00,19.7,17.0,30.18,SE,133,0.0,3.0,89,0.00,,---,0.00,VWS V14.01,2013-12-19 06:26:00,
2013-12-19 01:30:00,18.5,16.1,30.20,SE,133,0.0,1.0,90,0.00,,---,0.00,VWS V14.01,2013-12-19 06:30:00,
2013-12-19 01:31:00,19.3,16.3,30.17,SE,132,0.0,3.0,88,0.00,,---,0.00,VWS V14.01,2013-12-19 06:31:00,
2013-12-19 01:36:00,19.0,16.3,30.18,SE,132,0.0,0.0,89,0.00,,---,0.00,VWS V14.01,2013-12-19 06:36:00,
2013-12-19 01:41:00,19.0,16.6,30.18,SE,132,1.0,1.0,90,0.00,,---,0.00,VWS V14.01,2013-12-19 06:41:00,
2013-12-19 01:46:00,19.2,16.8,30.18,SE,132,0.0,1.0,90,0.00,,---,0.00,VWS V14.01,2013-12-19 06:46:00,
2013-12-19 01:51:00,19.0,16.0,30.19,SE,132,0.0,1.0,89,0.00,,,0.00,weatherlink.com 1.10,2013-12-19 06:51:00,
2013-12-19 01:56:00,18.8,16.1,30.19,SE,132,0.0,1.0,89,0.00,,---,0.00,VWS V14.01,2013-12-19 06:56:00,
2013-12-19 02:00:00,17.5,15.1,30.19,SE,132,0.0,1.0,90,0.00,,---,0.00,VWS V14.01,2013-12-19 07:00:00,
2013-12-19 02:01:00,18.8,16.4,30.19,SE,132,0.0,1.0,90,0.00,,---,0.00,VWS V14.01,2013-12-19 07:01:00,
2013-12-19 02:06:00,18.7,16.3,30.19,SE,133,0.0,0.0,90,0.00,,---,0.00,VWS V14.01,2013-12-19 07:06:00,
2013-12-19 02:11:00,18.8,16.4,30.19,SE,132,0.0,0.0,90,0.00,,---,0.00,VWS V14.01,2013-12-19 07:11:00,
2013-12-19 02:16:00,18.8,16.4,30.20,SE,132,0.0,0.0,90,0.00,,---,0.00,VWS V14.01,2013-12-19 07:16:00,
2013-12-19 02:21:00,18.7,16.3,30.20,SE,132,0.0,1.0,90,0.00,,---,0.00,VWS V14.01,2013-12-19 07:21:00,
2013-12-19 02:26:00,18.7,16.3,30.20,SE,132,0.0,1.0,90,0.00,,---,0.00,VWS V14.01,2013-12-19 07:26:00,
2013-12-19 02:30:00,17.2,15.3,30.18,SE,133,0.0,1.0,92,0.00,,---,0.00,VWS V14.01,2013-12-19 07:30:00,
2013-12-19 02:31:00,18.5,16.1,30.20,SE,132,0.0,1.0,90,0.00,,---,0.00,VWS V14.01,2013-12-19 07:31:00,
2013-12-19 02:36:00,18.3,15.9,30.20,SE,132,0.0,0.0,90,0.00,,---,0.00,VWS V14.01,2013-12-19 07:36:00,
2013-12-19 02:41:00,18.3,15.9,30.20,SE,133,0.0,1.0,90,0.00,,---,0.00,VWS V14.01,2013-12-19 07:41:00,
2013-12-19 02:46:00,18.2,15.8,30.20,SE,132,0.0,1.0,90,0.00,,---,0.00,VWS V14.01,2013-12-19 07:46:00,
2013-12-19 02:51:00,18.0,15.6,30.19,SE,132,0.0,1.0,90,0.00,,---,0.00,VWS V14.01,2013-12-19 07:51:00,
2013-12-19 02:56:00,17.8,15.4,30.19,SE,132,0.0,1.0,90,0.00,,---,0.00,VWS V14.01,2013-12-19 07:56:00,
2013-12-19 03:00:00,16.9,15.0,30.19,SE,133,0.0,1.0,92,0.00,,---,0.00,VWS V14.01,2013-12-19 08:00:00,
2013-12-19 03:02:00,17.6,15.2,30.19,SE,132,0.0,1.0,90,0.00,,---,0.00,VWS V14.01,2013-12-19 08:02:00,
2013-12-19 03:07:00,17.4,15.2,30.19,SE,132,0.0,0.0,91,0.00,,---,0.00,VWS V14.01,2013-12-19 08:07:00,
2013-12-19 03:12:00,17.5,15.3,30.19,SE,133,0.0,0.0,91,0.00,,---,0.00,VWS V14.01,2013-12-19 08:12:00,
2013-12-19 03:17:00,17.4,15.2,30.19,SE,133,0.0,0.0,91,0.00,,---,0.00,VWS V14.01,2013-12-19 08:17:00,
2013-12-19 03:22:00,17.3,15.1,30.19,SE,133,0.0,1.0,91,0.00,,---,0.00,VWS V14.01,2013-12-19 08:22:00,
2013-12-19 03:27:00,17.2,15.0,30.19,SE,132,0.0,1.0,91,0.00,,---,0.00,VWS V14.01,2013-12-19 08:27:00,
2013-12-19 03:30:00,16.5,14.8,30.18,SE,132,0.0,0.0,93,0.00,,---,0.00,VWS V14.01,2013-12-19 08:30:00,
2013-12-19 03:31:00,17.2,15.3,30.18,SE,132,0.0,1.0,92,0.00,,---,0.00,VWS V14.01,2013-12-19 08:31:00,
2013-12-19 03:36:00,17.2,15.3,30.18,SE,133,0.0,0.0,92,0.00,,---,0.00,VWS V14.01,2013-12-19 08:36:00,
2013-12-19 03:41:00,17.2,15.3,30.18,SE,132,0.0,0.0,92,0.00,,---,0.00,VWS V14.01,2013-12-19 08:41:00,
2013-12-19 03:46:00,17.0,15.1,30.18,SE,133,0.0,0.0,92,0.00,,---,0.00,VWS V14.01,2013-12-19 08:46:00,
2013-12-19 03:51:00,17.0,15.1,30.18,SE,132,0.0,0.0,92,0.00,,---,0.00,VWS V14.01,2013-12-19 08:51:00,
2013-12-19 03:56:00,16.9,15.0,30.19,SE,133,0.0,0.0,92,0.00,,---,0.00,VWS V14.01,2013-12-19 08:56:00,
2013-12-19 04:00:00,16.3,14.6,30.18,SE,132,0.0,0.0,93,0.00,,---,0.00,VWS V14.01,2013-12-19 09:00:00,
2013-12-19 04:01:00,16.9,15.0,30.19,SE,133,0.0,1.0,92,0.00,,---,0.00,VWS V14.01,2013-12-19 09:01:00,
2013-12-19 04:06:00,16.8,14.9,30.19,SE,133,0.0,0.0,92,0.00,,---,0.00,VWS V14.01,2013-12-19 09:06:00,
2013-12-19 04:11:00,16.6,14.7,30.19,SE,132,0.0,0.0,92,0.00,,---,0.00,VWS V14.01,2013-12-19 09:11:00,
2013-12-19 04:16:00,16.6,14.7,30.19,SE,133,0.0,0.0,92,0.00,,---,0.00,VWS V14.01,2013-12-19 09:16:00,
2013-12-19 04:21:00,16.6,14.9,30.18,SE,133,0.0,0.0,93,0.00,,---,0.00,VWS V14.01,2013-12-19 09:21:00,
2013-12-19 04:26:00,16.5,14.8,30.19,SE,133,0.0,0.0,93,0.00,,---,0.00,VWS V14.01,2013-12-19 09:26:00,
2013-12-19 04:30:00,16.5,14.8,30.17,SE,133,0.0,0.0,93,0.00,,---,0.00,VWS V14.01,2013-12-19 09:30:00,
2013-12-19 04:31:00,16.5,14.8,30.18,SE,132,0.0,0.0,93,0.00,,---,0.00,VWS V14.01,2013-12-19 09:31:00,
2013-12-19 04:36:00,16.5,14.8,30.18,SE,133,0.0,0.0,93,0.00,,---,0.00,VWS V14.01,2013-12-19 09:36:00,
2013-12-19 04:41:00,16.5,14.8,30.18,SE,133,0.0,0.0,93,0.00,,---,0.00,VWS V14.01,2013-12-19 09:41:00,
2013-12-19 04:46:00,16.4,14.7,30.17,SE,133,0.0,0.0,93,0.00,,---,0.00,VWS V14.01,2013-12-19 09:46:00,
2013-12-19 04:51:00,16.4,14.7,30.17,SE,132,0.0,0.0,93,0.00,,---,0.00,VWS V14.01,2013-12-19 09:51:00,
2013-12-19 04:56:00,16.3,14.6,30.18,SE,133,0.0,0.0,93,0.00,,---,0.00,VWS V14.01,2013-12-19 09:56:00,
2013-12-19 05:00:00,15.8,14.1,30.17,SE,133,0.0,0.0,93,0.00,,---,0.00,VWS V14.01,2013-12-19 10:00:00,
2013-12-19 05:01:00,16.3,14.6,30.18,SE,132,0.0,0.0,93,0.00,,---,0.00,VWS V14.01,2013-12-19 10:01:00,
2013-12-19 05:06:00,16.4,14.7,30.18,SE,132,0.0,0.0,93,0.00,,---,0.00,VWS V14.01,2013-12-19 10:06:00,
2013-12-19 05:11:00,16.6,14.9,30.17,SE,133,0.0,0.0,93,0.00,,---,0.00,VWS V14.01,2013-12-19 10:11:00,
2013-12-19 05:16:00,16.7,15.0,30.17,SE,133,0.0,0.0,93,0.00,,---,0.00,VWS V14.01,2013-12-19 10:16:00,
2013-12-19 05:21:00,16.6,14.9,30.17,SE,133,0.0,0.0,93,0.00,,---,0.00,VWS V14.01,2013-12-19 10:21:00,
2013-12-19 05:26:00,16.5,14.8,30.17,SE,132,0.0,0.0,93,0.00,,---,0.00,VWS V14.01,2013-12-19 10:26:00,
2013-12-19 05:30:00,16.6,15.2,30.17,SE,133,0.0,1.0,94,0.00,,---,0.00,VWS V14.01,2013-12-19 10:30:00,
2013-12-19 05:31:00,16.5,14.8,30.17,SE,132,0.0,0.0,93,0.00,,---,0.00,VWS V14.01,2013-12-19 10:31:00,
2013-12-19 05:36:00,16.5,14.8,30.17,SE,132,0.0,0.0,93,0.00,,---,0.00,VWS V14.01,2013-12-19 10:36:00,
2013-12-19 05:41:00,16.3,14.6,30.17,SE,132,0.0,0.0,93,0.00,,---,0.00,VWS V14.01,2013-12-19 10:41:00,
2013-12-19 05:46:00,16.2,14.5,30.17,SE,132,0.0,0.0,93,0.00,,---,0.00,VWS V14.01,2013-12-19 10:46:00,
2013-12-19 05:51:00,16.1,14.4,30.16,SE,132,0.0,0.0,93,0.00,,---,0.00,VWS V14.01,2013-12-19 10:51:00,
2013-12-19 05:56:00,16.0,14.3,30.17,SE,132,0.0,0.0,93,0.00,,---,0.00,VWS V14.01,2013-12-19 10:56:00,
2013-12-19 06:00:00,17.4,15.7,30.16,SE,134,0.0,1.0,93,0.00,,---,0.00,VWS V14.01,2013-12-19 11:00:00,
2013-12-19 06:02:00,15.9,14.2,30.17,SE,132,0.0,0.0,93,0.00,,---,0.00,VWS V14.01,2013-12-19 11:02:00,
2013-12-19 06:07:00,15.8,14.1,30.17,SE,132,0.0,0.0,93,0.00,,---,0.00,VWS V14.01,2013-12-19 11:07:00,
2013-12-19 06:12:00,15.8,14.1,30.17,SE,133,0.0,0.0,93,0.00,,---,0.00,VWS V14.01,2013-12-19 11:12:00,
2013-12-19 06:17:00,15.9,14.2,30.17,SE,132,0.0,0.0,93,0.00,,---,0.00,VWS V14.01,2013-12-19 11:17:00,
2013-12-19 06:22:00,16.2,14.8,30.17,SE,132,0.0,1.0,94,0.00,,---,0.00,VWS V14.01,2013-12-19 11:22:00,
2013-12-19 06:27:00,16.3,14.9,30.17,SE,132,0.0,1.0,94,0.00,,---,0.00,VWS V14.01,2013-12-19 11:27:00,
2013-12-19 06:30:00,18.8,17.4,30.16,West,264,0.0,1.0,94,0.00,,---,0.00,VWS V14.01,2013-12-19 11:30:00,
2013-12-19 06:32:00,16.6,15.2,30.17,SE,132,0.0,1.0,94,0.00,,---,0.00,VWS V14.01,2013-12-19 11:32:00,
2013-12-19 06:37:00,16.8,15.4,30.17,SE,133,0.0,0.0,94,0.00,,---,0.00,VWS V14.01,2013-12-19 11:37:00,
2013-12-19 06:42:00,17.1,15.7,30.16,SE,132,0.0,0.0,94,0.00,,---,0.00,VWS V14.01,2013-12-19 11:42:00,
2013-12-19 06:47:00,17.3,15.9,30.16,SE,134,0.0,1.0,94,0.00,,---,0.00,VWS V14.01,2013-12-19 11:47:00,
2013-12-19 06:52:00,17.3,15.9,30.16,SE,134,0.0,1.0,94,0.00,,---,0.00,VWS V14.01,2013-12-19 11:52:00,
2013-12-19 06:57:00,17.4,16.0,30.16,SE,134,0.0,1.0,94,0.00,,---,0.00,VWS V14.01,2013-12-19 11:57:00,
2013-12-19 07:00:00,20.9,19.2,30.16,West,269,0.0,1.0,93,0.00,,---,0.00,VWS V14.01,2013-12-19 12:00:00,
2013-12-19 07:02:00,17.4,15.7,30.16,SE,134,0.0,1.0,93,0.00,,---,0.00,VWS V14.01,2013-12-19 12:02:00,
2013-12-19 07:07:00,17.4,15.7,30.16,SE,134,0.0,0.0,93,0.00,,---,0.00,VWS V14.01,2013-12-19 12:07:00,
2013-12-19 07:12:00,17.6,16.2,30.16,SE,134,0.0,0.0,94,0.00,,---,0.00,VWS V14.01,2013-12-19 12:12:00,
2013-12-19 07:17:00,18.0,16.6,30.16,West,266,0.0,1.0,94,0.00,,---,0.00,VWS V14.01,2013-12-19 12:17:00,
2013-12-19 07:22:00,18.4,17.0,30.16,West,265,0.0,1.0,94,0.00,,---,0.00,VWS V14.01,2013-12-19 12:22:00,
2013-12-19 07:27:00,18.5,17.1,30.15,West,264,0.0,1.0,94,0.00,,---,0.00,VWS V14.01,2013-12-19 12:27:00,
2013-12-19 07:30:00,22.9,20.1,30.16,West,276,0.0,1.0,89,0.00,,---,0.00,VWS V14.01,2013-12-19 12:30:00,
2013-12-19 07:32:00,18.7,17.3,30.16,West,264,0.0,1.0,94,0.00,,---,0.00,VWS V14.01,2013-12-19 12:32:00,
2013-12-19 07:37:00,18.9,17.5,30.16,West,264,0.0,0.0,94,0.00,,---,0.00,VWS V14.01,2013-12-19 12:37:00,
2013-12-19 07:42:00,18.9,17.2,30.16,West,264,0.0,0.0,93,0.00,,---,0.00,VWS V14.01,2013-12-19 12:42:00,
2013-12-19 07:47:00,19.2,17.8,30.16,West,264,0.0,0.0,94,0.00,,---,0.00,VWS V14.01,2013-12-19 12:47:00,
2013-12-19 07:52:00,19.7,18.3,30.16,West,262,1.0,1.0,94,0.00,,---,0.00,VWS V14.01,2013-12-19 12:52:00,
2013-12-19 07:57:00,20.3,18.9,30.16,West,262,0.0,1.0,94,0.00,,---,0.00,VWS V14.01,2013-12-19 12:57:00,
2013-12-19 08:00:00,25.6,21.5,30.15,WSW,239,0.0,2.0,84,0.00,,---,0.00,VWS V14.01,2013-12-19 13:00:00,
2013-12-19 08:02:00,20.8,19.1,30.16,West,269,0.0,1.0,93,0.00,,---,0.00,VWS V14.01,2013-12-19 13:02:00,
2013-12-19 08:07:00,21.2,19.5,30.16,West,269,0.0,0.0,93,0.00,,---,0.00,VWS V14.01,2013-12-19 13:07:00,
2013-12-19 08:12:00,21.5,19.5,30.16,West,269,0.0,1.0,92,0.00,,---,0.00,VWS V14.01,2013-12-19 13:12:00,
2013-12-19 08:17:00,21.9,19.7,30.16,West,269,0.0,1.0,91,0.00,,---,0.00,VWS V14.01,2013-12-19 13:17:00,
2013-12-19 08:22:00,22.1,19.9,30.16,West,270,0.0,1.0,91,0.00,,---,0.00,VWS V14.01,2013-12-19 13:22:00,
2013-12-19 08:27:00,22.4,19.9,30.16,West,270,0.0,1.0,90,0.00,,---,0.00,VWS V14.01,2013-12-19 13:27:00,
2013-12-19 08:30:00,28.2,22.2,30.15,WSW,254,1.0,3.0,78,0.00,,---,0.00,VWS V14.01,2013-12-19 13:30:00,
2013-12-19 08:32:00,22.8,20.0,30.16,West,276,0.0,1.0,89,0.00,,---,0.00,VWS V14.01,2013-12-19 13:32:00,
2013-12-19 08:37:00,23.2,20.2,30.15,West,276,0.0,0.0,88,0.00,,---,0.00,VWS V14.01,2013-12-19 13:37:00,
2013-12-19 08:42:00,23.5,20.5,30.15,West,280,0.0,1.0,88,0.00,,---,0.00,VWS V14.01,2013-12-19 13:42:00,
2013-12-19 08:47:00,24.0,20.7,30.15,West,276,0.0,1.0,87,0.00,,---,0.00,VWS V14.01,2013-12-19 13:47:00,
2013-12-19 08:52:00,24.6,20.7,30.15,West,262,1.0,2.0,85,0.00,,---,0.00,VWS V14.01,2013-12-19 13:52:00,
2013-12-19 08:57:00,25.0,20.9,30.15,West,269,1.0,2.0,84,0.00,,---,0.00,VWS V14.01,2013-12-19 13:57:00,
2013-12-19 09:00:00,29.8,22.9,30.15,WSW,240,3.0,5.0,75,0.00,,---,0.00,VWS V14.01,2013-12-19 14:00:00,
2013-12-19 09:02:00,25.4,21.2,30.14,West,276,0.0,2.0,84,0.00,,---,0.00,VWS V14.01,2013-12-19 14:02:00,
2013-12-19 09:07:00,26.2,21.8,30.14,WSW,250,0.0,1.0,83,0.00,,---,0.00,VWS V14.01,2013-12-19 14:07:00,
2013-12-19 09:12:00,27.0,22.0,30.14,West,281,1.0,1.0,81,0.00,,---,0.00,VWS V14.01,2013-12-19 14:12:00,
2013-12-19 09:17:00,27.3,21.7,30.15,West,274,2.0,2.0,79,0.00,,---,0.00,VWS V14.01,2013-12-19 14:17:00,
2013-12-19 09:22:00,27.5,21.5,30.15,West,262,0.0,2.0,78,0.00,,---,0.00,VWS V14.01,2013-12-19 14:22:00,
2013-12-19 09:28:00,27.8,21.9,30.15,SW,232,1.0,3.0,78,0.00,,---,0.00,VWS V14.01,2013-12-19 14:28:00,
2013-12-19 09:30:00,31.1,23.8,30.12,WNW,287,1.0,6.0,74,0.00,,---,0.00,VWS V14.01,2013-12-19 14:30:00,
2013-12-19 09:33:00,28.1,22.1,30.15,WSW,253,2.0,3.0,78,0.00,,---,0.00,VWS V14.01,2013-12-19 14:33:00,
2013-12-19 09:38:00,28.4,22.1,30.15,West,274,0.0,1.0,77,0.00,,---,0.00,VWS V14.01,2013-12-19 14:38:00,
2013-12-19 09:43:00,28.7,22.4,30.15,WSW,253,1.0,2.0,77,0.00,,---,0.00,VWS V14.01,2013-12-19 14:43:00,
2013-12-19 09:48:00,28.9,22.3,30.15,West,277,3.0,3.0,76,0.00,,---,0.00,VWS V14.01,2013-12-19 14:48:00,
2013-12-19 09:53:00,29.2,22.6,30.15,WSW,252,2.0,4.0,76,0.00,,---,0.00,VWS V14.01,2013-12-19 14:53:00,
2013-12-19 09:58:00,29.5,22.9,30.15,West,276,4.0,5.0,76,0.00,,---,0.00,VWS V14.01,2013-12-19 14:58:00,
2013-12-19 10:00:00,33.9,25.2,30.10,West,271,1.0,4.0,70,0.00,,---,0.00,VWS V14.01,2013-12-19 15:00:00,
2013-12-19 10:03:00,29.7,22.8,30.15,West,268,4.0,5.0,75,0.00,,---,0.00,VWS V14.01,2013-12-19 15:03:00,
2013-12-19 10:08:00,29.9,23.0,30.14,West,276,3.0,6.0,75,0.00,,---,0.00,VWS V14.01,2013-12-19 15:08:00,
2013-12-19 10:13:00,30.2,23.2,30.14,West,259,3.0,6.0,75,0.00,,---,0.00,VWS V14.01,2013-12-19 15:13:00,
2013-12-19 10:18:00,30.4,23.4,30.13,WSW,249,3.0,6.0,75,0.00,,---,0.00,VWS V14.01,2013-12-19 15:18:00,
2013-12-19 10:23:00,30.6,23.3,30.13,WNW,285,2.0,6.0,74,0.00,,---,0.00,VWS V14.01,2013-12-19 15:23:00,
2013-12-19 10:28:00,30.8,23.5,30.13,West,266,2.0,6.0,74,0.00,,---,0.00,VWS V14.01,2013-12-19 15:28:00,
2013-12-19 10:30:00,35.7,25.5,30.08,West,281,1.0,6.0,66,0.00,,---,0.00,VWS V14.01,2013-12-19 15:30:00,
2013-12-19 10:33:00,31.1,23.8,30.13,West,266,2.0,6.0,74,0.00,,---,0.00,VWS V14.01,2013-12-19 15:33:00,
2013-12-19 10:38:00,31.4,23.8,30.12,WSW,257,2.0,3.0,73,0.00,,---,0.00,VWS V14.01,2013-12-19 15:38:00,
2013-12-19 10:43:00,31.8,24.1,30.12,WNW,285,2.0,4.0,73,0.00,,---,0.00,VWS V14.01,2013-12-19 15:43:00,
2013-12-19 10:48:00,32.0,24.3,30.11,West,277,1.0,4.0,73,0.00,,---,0.00,VWS V14.01,2013-12-19 15:48:00,
2013-12-19 10:53:00,32.7,24.7,30.11,West,273,1.0,4.0,72,0.00,,---,0.00,VWS V14.01,2013-12-19 15:53:00,
2013-12-19 10:58:00,33.2,24.8,30.10,WSW,250,0.0,4.0,71,0.00,,---,0.00,VWS V14.01,2013-12-19 15:58:00,
2013-12-19 11:00:00,37.3,25.9,30.08,SW,232,1.0,6.0,63,0.00,,---,0.00,VWS V14.01,2013-12-19 16:00:00,
2013-12-19 11:03:00,33.9,25.2,30.10,WNW,282,1.0,1.0,70,0.00,,---,0.00,VWS V14.01,2013-12-19 16:03:00,
2013-12-19 11:08:00,34.2,24.8,30.10,WSW,246,2.0,3.0,68,0.00,,---,0.00,VWS V14.01,2013-12-19 16:08:00,
2013-12-19 11:13:00,34.5,25.0,30.10,West,275,4.0,4.0,68,0.00,,---,0.00,VWS V14.01,2013-12-19 16:13:00,
2013-12-19 11:18:00,34.7,24.9,30.10,West,273,3.0,4.0,67,0.00,,---,0.00,VWS V14.01,2013-12-19 16:18:00,
2013-12-19 11:23:00,35.1,25.3,30.09,West,271,4.0,5.0,67,0.00,,---,0.00,VWS V14.01,2013-12-19 16:23:00,
2013-12-19 11:28:00,35.5,25.3,30.09,SW,226,1.0,5.0,66,0.00,,---,0.00,VWS V14.01,2013-12-19 16:28:00,
2013-12-19 11:30:00,39.5,26.4,30.06,West,259,2.0,4.0,59,0.00,,---,0.00,VWS V14.01,2013-12-19 16:30:00,
2013-12-19 11:33:00,35.7,25.5,30.08,West,281,1.0,6.0,66,0.00,,---,0.00,VWS V14.01,2013-12-19 16:33:00,
2013-12-19 11:38:00,36.0,25.8,30.08,WSW,241,1.0,4.0,66,0.00,,---,0.00,VWS V14.01,2013-12-19 16:38:00,
2013-12-19 11:43:00,36.3,25.7,30.08,WNW,285,1.0,5.0,65,0.00,,---,0.00,VWS V14.01,2013-12-19 16:43:00,
2013-12-19 11:48:00,36.6,25.6,30.08,WSW,257,1.0,5.0,64,0.00,,---,0.00,VWS V14.01,2013-12-19 16:48:00,
2013-12-19 11:53:00,36.8,25.8,30.08,SSE,167,1.0,5.0,64,0.00,,---,0.00,VWS V14.01,2013-12-19 16:53:00,
2013-12-19 11:58:00,37.1,25.3,30.08,West,269,3.0,6.0,62,0.00,,---,0.00,VWS V14.01,2013-12-19 16:58:00,
2013-12-19 12:00:00,41.7,26.3,30.05,West,276,3.0,5.0,54,0.00,,---,0.00,VWS V14.01,2013-12-19 17:00:00,
2013-12-19 12:03:00,37.3,25.9,30.08,WSW,244,1.0,1.0,63,0.00,,---,0.00,VWS V14.01,2013-12-19 17:03:00,
2013-12-19 12:08:00,37.7,25.9,30.08,West,278,2.0,4.0,62,0.00,,---,0.00,VWS V14.01,2013-12-19 17:08:00,
2013-12-19 12:13:00,38.0,26.1,30.07,WSW,238,0.0,4.0,62,0.00,,---,0.00,VWS V14.01,2013-12-19 17:13:00,
2013-12-19 12:18:00,38.3,26.0,30.07,WSW,238,1.0,4.0,61,0.00,,---,0.00,VWS V14.01,2013-12-19 17:18:00,
2013-12-19 12:23:00,38.7,26.4,30.07,SW,236,2.0,4.0,61,0.00,,---,0.00,VWS V14.01,2013-12-19 17:23:00,
2013-12-19 12:28:00,39.1,26.4,30.06,West,270,1.0,4.0,60,0.00,,---,0.00,VWS V14.01,2013-12-19 17:28:00,
2013-12-19 12:30:00,44.3,26.4,30.04,West,263,3.0,6.0,49,0.01,,---,0.01,VWS V14.01,2013-12-19 17:30:00,
2013-12-19 12:33:00,39.5,26.4,30.05,WSW,258,1.0,2.0,59,0.00,,---,0.00,VWS V14.01,2013-12-19 17:33:00,
2013-12-19 12:38:00,39.8,26.2,30.06,West,280,4.0,4.0,58,0.00,,---,0.00,VWS V14.01,2013-12-19 17:38:00,
2013-12-19 12:43:00,40.0,26.4,30.06,WSW,253,1.0,4.0,58,0.00,,---,0.00,VWS V14.01,2013-12-19 17:43:00,
2013-12-19 12:48:00,40.4,26.4,30.05,West,276,1.0,4.0,57,0.00,,---,0.00,VWS V14.01,2013-12-19 17:48:00,
2013-12-19 12:53:00,40.9,26.4,30.05,West,269,3.0,5.0,56,0.00,,---,0.00,VWS V14.01,2013-12-19 17:53:00,
2013-12-19 12:58:00,41.2,26.3,30.05,West,272,1.0,5.0,55,0.00,,---,0.00,VWS V14.01,2013-12-19 17:58:00,
2013-12-19 13:00:00,45.0,26.5,30.03,WSW,245,1.0,7.0,48,0.05,,---,0.05,VWS V14.01,2013-12-19 18:00:00,
2013-12-19 13:03:00,41.7,26.3,30.05,West,277,3.0,3.0,54,0.00,,---,0.00,VWS V14.01,2013-12-19 18:03:00,
2013-12-19 13:05:00,41.9,26.0,30.05,West,264,2.0,4.0,53,0.00,,---,0.00,VWS V14.01,2013-12-19 18:05:00,
2013-12-19 13:10:00,42.4,26.0,30.04,West,266,4.0,5.0,52,0.00,,---,0.00,VWS V14.01,2013-12-19 18:10:00,
2013-12-19 13:15:00,42.9,26.0,30.05,West,280,2.0,5.0,51,0.00,,---,0.00,VWS V14.01,2013-12-19 18:15:00,
2013-12-19 13:20:00,43.3,25.9,30.04,SW,228,4.0,6.0,50,0.00,,---,0.00,VWS V14.01,2013-12-19 18:20:00,
2013-12-19 13:25:00,43.7,26.3,30.04,SW,231,2.0,6.0,50,0.01,,---,0.01,VWS V14.01,2013-12-19 18:25:00,
2013-12-19 13:30:00,44.2,26.3,30.04,West,266,4.0,6.0,49,0.01,,---,0.01,VWS V14.01,2013-12-19 18:30:00,
2013-12-19 13:35:00,44.3,25.9,30.04,WNW,284,5.0,6.0,48,0.01,,---,0.01,VWS V14.01,2013-12-19 18:35:00,
2013-12-19 13:40:00,44.5,26.0,30.04,WNW,293,5.0,7.0,48,0.02,,---,0.02,VWS V14.01,2013-12-19 18:40:00,
2013-12-19 13:45:00,44.6,26.1,30.04,WSW,256,2.0,7.0,48,0.03,,---,0.03,VWS V14.01,2013-12-19 18:45:00,
2013-12-19 13:50:00,45.0,26.5,30.03,WNW,282,6.0,7.0,48,0.04,,---,0.04,VWS V14.01,2013-12-19 18:50:00,
2013-12-19 13:55:00,45.0,27.0,30.04,West,267,1.0,7.0,49,0.04,,---,0.04,VWS V14.01,2013-12-19 18:55:00,
2013-12-19 14:00:00,45.0,26.5,30.04,West,274,3.0,7.0,48,0.05,,---,0.05,VWS V14.01,2013-12-19 19:00:00,
2013-12-19 14:05:00,45.0,26.5,30.03,WSW,248,4.0,4.0,48,0.06,,---,0.06,VWS V14.01,2013-12-19 19:05:00,
2013-12-19 14:10:00,45.2,26.7,30.03,WSW,239,4.0,6.0,48,0.06,,---,0.06,VWS V14.01,2013-12-19 19:10:00,
2013-12-19 14:15:00,45.3,26.8,30.04,NE,45,1.0,6.0,48,0.07,,---,0.07,VWS V14.01,2013-12-19 19:15:00,
2013-12-19 14:20:00,45.3,26.8,30.04,WNW,282,4.0,8.0,48,0.08,,---,0.08,VWS V14.01,2013-12-19 19:20:00,
2013-12-19 14:25:00,45.3,27.3,30.03,ESE,113,0.0,8.0,49,0.09,,---,0.09,VWS V14.01,2013-12-19 19:25:00,
2013-12-19 14:30:00,45.4,27.4,30.03,WSW,242,1.0,8.0,49,0.09,,---,0.09,VWS V14.01,2013-12-19 19:30:00,
2013-12-19 14:35:00,45.4,27.4,30.04,West,271,1.0,2.0,49,0.09,,---,0.10,VWS V14.01,2013-12-19 19:35:00,
2013-12-19 14:40:00,45.1,27.1,30.04,WNW,291,1.0,4.0,49,0.09,,---,0.10,VWS V14.01,2013-12-19 19:40:00,
2013-12-19 14:45:00,44.9,26.9,30.04,West,259,1.0,4.0,49,0.10,,---,0.11,VWS V14.01,2013-12-19 19:45:00,
2013-12-19 14:50:00,44.7,27.2,30.04,WSW,238,1.0,5.0,50,0.10,,---,0.11,VWS V14.01,2013-12-19 19:50:00,
2013-12-19 14:55:00,44.5,27.5,30.04,West,262,1.0,5.0,51,0.11,,---,0.12,VWS V14.01,2013-12-19 19:55:00,
2013-12-19 15:00:00,44.4,27.4,30.04,WNW,286,2.0,5.0,51,0.11,,---,0.12,VWS V14.01,2013-12-19 20:00:00,
2013-12-19 15:05:00,44.3,27.3,30.05,West,271,2.0,3.0,51,0.08,,---,0.13,VWS V14.01,2013-12-19 20:05:00,
2013-12-19 15:10:00,44.3,26.9,30.05,West,278,4.0,6.0,50,0.08,,---,0.13,VWS V14.01,2013-12-19 20:10:00,
2013-12-19 15:15:00,44.3,27.3,30.05,West,274,5.0,6.0,51,0.09,,---,0.14,VWS V14.01,2013-12-19 20:15:00,
2013-12-19 15:20:00,44.4,26.9,30.05,SW,231,2.0,9.0,50,0.09,,---,0.14,VWS V14.01,2013-12-19 20:20:00,
2013-12-19 15:25:00,44.4,26.9,30.05,WSW,244,1.0,9.0,50,0.09,,---,0.14,VWS V14.01,2013-12-19 20:25:00,
2013-12-19 15:30:00,44.3,27.3,30.05,WSW,252,0.0,9.0,51,0.10,,---,0.15,VWS V14.01,2013-12-19 20:30:00,
2013-12-19 15:35:00,44.1,27.1,30.05,WSW,238,1.0,3.0,51,0.06,,---,0.15,VWS V14.01,2013-12-19 20:35:00,
2013-12-19 15:40:00,44.0,27.0,30.06,West,259,2.0,3.0,51,0.06,,---,0.15,VWS V14.01,2013-12-19 20:40:00,
2013-12-19 15:45:00,43.9,27.0,30.06,West,273,0.0,4.0,51,0.07,,---,0.16,VWS V14.01,2013-12-19 20:45:00,
2013-12-19 15:50:00,43.7,27.2,30.06,WSW,252,1.0,4.0,52,0.07,,---,0.16,VWS V14.01,2013-12-19 20:50:00,
2013-12-19 15:55:00,43.7,27.2,30.06,West,259,0.0,4.0,52,0.07,,---,0.16,VWS V14.01,2013-12-19 20:55:00,
2013-12-19 16:00:00,43.6,27.1,30.06,SW,225,0.0,4.0,52,0.07,,---,0.16,VWS V14.01,2013-12-19 21:00:00,
2013-12-19 16:05:00,43.4,27.4,30.06,SW,236,0.0,1.0,53,0.03,,---,0.16,VWS V14.01,2013-12-19 21:05:00,
2013-12-19 16:10:00,43.1,27.1,30.06,WSW,257,0.0,2.0,53,0.03,,---,0.16,VWS V14.01,2013-12-19 21:10:00,
2013-12-19 16:15:00,42.9,27.4,30.07,West,274,1.0,2.0,54,0.04,,---,0.17,VWS V14.01,2013-12-19 21:15:00,
2013-12-19 16:20:00,42.8,27.3,30.08,West,264,0.0,2.0,54,0.04,,---,0.17,VWS V14.01,2013-12-19 21:20:00,
2013-12-19 16:25:00,42.7,27.2,30.07,West,263,0.0,2.0,54,0.04,,---,0.17,VWS V14.01,2013-12-19 21:25:00,
2013-12-19 16:30:00,42.5,27.0,30.08,West,262,0.0,2.0,54,0.04,,---,0.17,VWS V14.01,2013-12-19 21:30:00,
2013-12-19 16:35:00,42.3,26.9,30.08,West,263,0.0,1.0,54,0.02,,---,0.17,VWS V14.01,2013-12-19 21:35:00,
2013-12-19 16:40:00,42.1,27.1,30.08,WSW,248,0.0,1.0,55,0.02,,---,0.17,VWS V14.01,2013-12-19 21:40:00,
2013-12-19 16:44:00,42.0,27.5,30.08,WSW,253,0.0,3.0,56,0.02,,---,0.17,VWS V14.01,2013-12-19 21:44:00,
2013-12-19 16:49:00,41.9,27.4,30.08,West,266,0.0,3.0,56,0.02,,---,0.17,VWS V14.01,2013-12-19 21:49:00,
2013-12-19 16:54:00,41.7,27.2,30.09,West,264,1.0,3.0,56,0.03,,---,0.18,VWS V14.01,2013-12-19 21:54:00,
2013-12-19 16:59:00,41.6,27.1,30.09,WSW,257,0.0,3.0,56,0.03,,---,0.18,VWS V14.01,2013-12-19 21:59:00,
2013-12-19 17:00:00,39.7,27.8,30.10,WSW,250,1.0,2.0,62,0.02,,---,0.19,VWS V14.01,2013-12-19 22:00:00,
2013-12-19 17:04:00,41.5,27.4,30.08,West,259,0.0,2.0,57,0.02,,---,0.18,VWS V14.01,2013-12-19 22:04:00,
2013-12-19 17:09:00,41.2,27.1,30.08,WSW,257,0.0,2.0,57,0.02,,---,0.18,VWS V14.01,2013-12-19 22:09:00,
2013-12-19 17:14:00,41.1,27.0,30.09,WSW,257,0.0,2.0,57,0.02,,---,0.18,VWS V14.01,2013-12-19 22:14:00,
2013-12-19 17:19:00,41.0,27.0,30.09,West,274,0.0,2.0,57,0.02,,---,0.18,VWS V14.01,2013-12-19 22:19:00,
2013-12-19 17:24:00,40.7,27.0,30.09,West,276,0.0,1.0,59,0.01,,,0.18,weatherlink.com 1.10,2013-12-19 22:24:00,
2013-12-19 17:29:00,40.4,27.6,30.09,West,263,0.0,2.0,60,0.02,,---,0.18,VWS V14.01,2013-12-19 22:29:00,
2013-12-19 17:30:00,38.7,28.0,30.12,WSW,255,0.0,3.0,65,0.01,,---,0.19,VWS V14.01,2013-12-19 22:30:00,
2013-12-19 17:34:00,40.3,27.1,30.09,West,263,1.0,1.0,59,0.01,,---,0.18,VWS V14.01,2013-12-19 22:34:00,
2013-12-19 17:39:00,40.3,27.5,30.09,West,260,1.0,2.0,60,0.01,,---,0.18,VWS V14.01,2013-12-19 22:39:00,
2013-12-19 17:44:00,40.1,27.4,30.10,WSW,248,0.0,2.0,60,0.01,,---,0.18,VWS V14.01,2013-12-19 22:44:00,
2013-12-19 17:49:00,40.0,27.2,30.10,WSW,252,2.0,2.0,60,0.02,,---,0.19,VWS V14.01,2013-12-19 22:49:00,
2013-12-19 17:54:00,40.0,27.6,30.10,West,270,1.0,2.0,61,0.02,,---,0.19,VWS V14.01,2013-12-19 22:54:00,
2013-12-19 17:59:00,39.8,27.5,30.10,WSW,250,1.0,2.0,61,0.02,,---,0.19,VWS V14.01,2013-12-19 22:59:00,
2013-12-19 18:00:00,38.0,28.0,30.12,West,264,0.0,1.0,67,0.01,,---,0.19,VWS V14.01,2013-12-19 23:00:00,
2013-12-19 18:04:00,39.7,27.4,30.10,West,269,1.0,2.0,61,0.01,,---,0.19,VWS V14.01,2013-12-19 23:04:00,
2013-12-19 18:09:00,39.6,27.7,30.10,WNW,285,1.0,2.0,62,0.01,,---,0.19,VWS V14.01,2013-12-19 23:09:00,
2013-12-19 18:14:00,39.4,27.9,30.10,WSW,248,0.0,3.0,63,0.01,,---,0.19,VWS V14.01,2013-12-19 23:14:00,
2013-12-19 18:19:00,39.2,27.7,30.10,West,266,0.0,3.0,63,0.01,,---,0.19,VWS V14.01,2013-12-19 23:19:00,
2013-12-19 18:24:00,39.0,27.9,30.11,WSW,250,0.0,3.0,64,0.01,,---,0.19,VWS V14.01,2013-12-19 23:24:00,
2013-12-19 18:29:00,38.8,28.1,30.11,WSW,252,1.0,3.0,65,0.01,,---,0.19,VWS V14.01,2013-12-19 23:29:00,
2013-12-19 18:30:00,37.9,27.9,30.13,West,267,0.0,2.0,67,0.00,,---,0.19,VWS V14.01,2013-12-19 23:30:00,
2013-12-19 18:34:00,38.6,28.2,30.12,WSW,255,0.0,1.0,66,0.01,,---,0.19,VWS V14.01,2013-12-19 23:34:00,
2013-12-19 18:39:00,38.3,28.0,30.12,West,267,0.0,1.0,66,0.01,,---,0.19,VWS V14.01,2013-12-19 23:39:00,
2013-12-19 18:44:00,38.3,28.0,30.11,West,269,0.0,1.0,66,0.01,,---,0.19,VWS V14.01,2013-12-19 23:44:00,
2013-12-19 18:49:00,38.2,27.9,30.12,WSW,245,0.0,1.0,66,0.01,,---,0.19,VWS V14.01,2013-12-19 23:49:00,
2013-12-19 18:54:00,38.0,28.0,30.12,WSW,243,0.0,1.0,67,0.01,,---,0.19,VWS V14.01,2013-12-19 23:54:00,
2013-12-19 18:59:00,38.1,28.1,30.12,West,264,0.0,1.0,67,0.01,,---,0.19,VWS V14.01,2013-12-19 23:59:00,
2013-12-19 19:00:00,38.1,27.8,30.13,West,271,1.0,3.0,66,0.00,,---,0.19,VWS V14.01,2013-12-20 00:00:00,
2013-12-19 19:04:00,37.9,27.9,30.12,West,264,0.0,1.0,67,0.00,,---,0.19,VWS V14.01,2013-12-20 00:04:00,
2013-12-19 19:09:00,37.9,27.9,30.12,West,267,0.0,1.0,67,0.00,,---,0.19,VWS V14.01,2013-12-20 00:09:00,
2013-12-19 19:14:00,37.8,27.8,30.12,West,266,1.0,1.0,67,0.00,,---,0.19,VWS V14.01,2013-12-20 00:14:00,
2013-12-19 19:19:00,37.9,27.9,30.12,WNW,297,0.0,2.0,67,0.00,,---,0.19,VWS V14.01,2013-12-20 00:19:00,
2013-12-19 19:24:00,38.0,28.0,30.12,West,266,0.0,2.0,67,0.00,,---,0.19,VWS V14.01,2013-12-20 00:24:00,
2013-12-19 19:29:00,38.0,28.0,30.13,West,266,0.0,2.0,67,0.00,,---,0.19,VWS V14.01,2013-12-20 00:29:00,
2013-12-19 19:30:00,37.7,28.1,30.13,West,267,0.0,3.0,68,0.01,,---,0.20,VWS V14.01,2013-12-20 00:30:00,
2013-12-19 19:34:00,38.0,28.0,30.13,West,267,0.0,1.0,67,0.00,,---,0.19,VWS V14.01,2013-12-20 00:34:00,
2013-12-19 19:39:00,38.0,28.4,30.13,West,274,0.0,2.0,68,0.00,,---,0.19,VWS V14.01,2013-12-20 00:39:00,
2013-12-19 19:44:00,38.0,28.0,30.13,WSW,244,0.0,2.0,67,0.00,,---,0.19,VWS V14.01,2013-12-20 00:44:00,
2013-12-19 19:49:00,37.9,27.9,30.13,WNW,288,2.0,2.0,67,0.00,,---,0.19,VWS V14.01,2013-12-20 00:49:00,
2013-12-19 19:54:00,38.1,27.8,30.14,West,262,1.0,3.0,66,0.00,,---,0.19,VWS V14.01,2013-12-20 00:54:00,
2013-12-19 19:59:00,38.2,27.9,30.14,SW,228,0.0,3.0,66,0.00,,---,0.19,VWS V14.01,2013-12-20 00:59:00,
2013-12-19 20:00:00,36.6,28.1,30.13,WSW,257,1.0,2.0,71,0.01,,---,0.20,VWS V14.01,2013-12-20 01:00:00,
2013-12-19 20:04:00,38.1,28.1,30.13,West,274,1.0,3.0,67,0.00,,---,0.19,VWS V14.01,2013-12-20 01:04:00,
2013-12-19 20:09:00,38.0,28.0,30.13,WSW,240,0.0,3.0,67,0.00,,---,0.19,VWS V14.01,2013-12-20 01:09:00,
2013-12-19 20:14:00,37.9,27.9,30.13,West,262,1.0,3.0,67,0.00,,---,0.19,VWS V14.01,2013-12-20 01:14:00,
2013-12-19 20:19:00,37.8,27.8,30.13,WSW,256,0.0,3.0,67,0.00,,---,0.19,VWS V14.01,2013-12-20 01:19:00,
2013-12-19 20:24:00,37.9,28.3,30.13,West,264,1.0,3.0,68,0.00,,---,0.19,VWS V14.01,2013-12-20 01:24:00,
2013-12-19 20:29:00,37.8,28.2,30.13,West,262,0.0,3.0,68,0.01,,---,0.20,VWS V14.01,2013-12-20 01:29:00,
2013-12-19 20:30:00,35.5,28.0,30.13,WSW,257,0.0,1.0,74,0.01,,---,0.20,VWS V14.01,2013-12-20 01:30:00,
2013-12-19 20:34:00,37.7,28.1,30.13,WNW,293,0.0,1.0,68,0.01,,---,0.20,VWS V14.01,2013-12-20 01:34:00,
2013-12-19 20:39:00,37.6,28.0,30.13,WSW,249,0.0,2.0,68,0.01,,---,0.20,VWS V14.01,2013-12-20 01:39:00,
2013-12-19 20:44:00,37.3,28.1,30.13,WSW,249,0.0,2.0,69,0.01,,---,0.20,VWS V14.01,2013-12-20 01:44:00,
2013-12-19 20:49:00,37.1,28.2,30.13,WSW,249,0.0,2.0,70,0.01,,---,0.20,VWS V14.01,2013-12-20 01:49:00,
2013-12-19 20:54:00,36.8,28.3,30.13,WSW,249,0.0,2.0,71,0.01,,---,0.20,VWS V14.01,2013-12-20 01:54:00,
2013-12-19 20:59:00,36.7,28.5,30.13,WSW,257,0.0,2.0,72,0.01,,---,0.20,VWS V14.01,2013-12-20 01:59:00,
2013-12-19 21:00:00,33.9,28.4,30.13,WSW,257,0.0,1.0,80,0.00,,---,0.20,VWS V14.01,2013-12-20 02:00:00,
2013-12-19 21:04:00,36.6,28.1,30.13,WSW,257,0.0,1.0,71,0.01,,---,0.20,VWS V14.01,2013-12-20 02:04:00,
2013-12-19 21:09:00,36.5,28.4,30.13,WSW,257,0.0,1.0,72,0.01,,---,0.20,VWS V14.01,2013-12-20 02:09:00,
2013-12-19 21:14:00,36.2,28.1,30.13,WSW,257,0.0,1.0,72,0.01,,---,0.20,VWS V14.01,2013-12-20 02:14:00,
2013-12-19 21:19:00,36.0,27.9,30.14,WSW,257,0.0,1.0,72,0.01,,---,0.20,VWS V14.01,2013-12-20 02:19:00,
2013-12-19 21:24:00,35.9,27.8,30.13,WSW,257,0.0,1.0,72,0.01,,---,0.20,VWS V14.01,2013-12-20 02:24:00,
2013-12-19 21:29:00,35.8,28.3,30.13,WSW,257,0.0,1.0,74,0.01,,---,0.20,VWS V14.01,2013-12-20 02:29:00,
2013-12-19 21:30:00,32.8,28.5,30.13,WSW,257,0.0,0.0,84,0.00,,---,0.20,VWS V14.01,2013-12-20 02:30:00,
2013-12-19 21:34:00,35.5,28.0,30.13,WSW,257,0.0,0.0,74,0.00,,---,0.20,VWS V14.01,2013-12-20 02:34:00,
2013-12-19 21:39:00,35.4,28.3,30.13,WSW,257,0.0,0.0,75,0.00,,---,0.20,VWS V14.01,2013-12-20 02:39:00,
2013-12-19 21:44:00,35.2,28.1,30.13,WSW,257,0.0,0.0,75,0.00,,---,0.20,VWS V14.01,2013-12-20 02:44:00,
2013-12-19 21:49:00,35.0,28.2,30.13,WSW,257,0.0,0.0,76,0.00,,---,0.20,VWS V14.01,2013-12-20 02:49:00,
2013-12-19 21:54:00,34.7,28.2,30.13,WSW,257,0.0,0.0,77,0.00,,---,0.20,VWS V14.01,2013-12-20 02:54:00,
2013-12-19 21:59:00,34.3,28.5,30.13,WSW,257,0.0,1.0,79,0.00,,---,0.20,VWS V14.01,2013-12-20 02:59:00,
2013-12-19 22:00:00,32.2,28.2,30.13,WSW,257,0.0,0.0,85,0.00,,---,0.20,VWS V14.01,2013-12-20 03:00:00,
2013-12-19 22:04:00,33.8,28.6,30.13,WSW,257,0.0,0.0,81,0.00,,---,0.20,VWS V14.01,2013-12-20 03:04:00,
2013-12-19 22:09:00,33.6,28.4,30.13,WSW,257,0.0,0.0,81,0.00,,---,0.20,VWS V14.01,2013-12-20 03:09:00,
2013-12-19 22:14:00,33.5,28.3,30.13,WSW,257,0.0,0.0,81,0.00,,---,0.20,VWS V14.01,2013-12-20 03:14:00,
2013-12-19 22:19:00,33.4,28.5,30.13,WSW,257,0.0,0.0,82,0.00,,---,0.20,VWS V14.01,2013-12-20 03:19:00,
2013-12-19 22:24:00,33.2,28.6,30.13,WSW,257,0.0,0.0,83,0.00,,---,0.20,VWS V14.01,2013-12-20 03:24:00,
2013-12-19 22:29:00,33.0,28.4,30.13,WSW,257,0.0,0.0,83,0.00,,---,0.20,VWS V14.01,2013-12-20 03:29:00,
2013-12-19 22:30:00,31.4,28.0,30.13,WSW,257,0.0,0.0,87,0.00,,---,0.20,VWS V14.01,2013-12-20 03:30:00,
2013-12-19 22:34:00,32.7,28.4,30.13,WSW,257,0.0,0.0,84,0.00,,---,0.20,VWS V14.01,2013-12-20 03:34:00,
2013-12-19 22:39:00,32.7,28.4,30.13,WSW,257,0.0,0.0,84,0.00,,---,0.20,VWS V14.01,2013-12-20 03:39:00,
2013-12-19 22:44:00,32.6,28.3,30.13,WSW,257,0.0,0.0,84,0.00,,---,0.20,VWS V14.01,2013-12-20 03:44:00,
2013-12-19 22:49:00,32.5,28.5,30.13,WSW,257,0.0,0.0,85,0.00,,---,0.20,VWS V14.01,2013-12-20 03:49:00,
2013-12-19 22:54:00,32.5,28.5,30.13,WSW,257,0.0,0.0,85,0.00,,---,0.20,VWS V14.01,2013-12-20 03:54:00,
2013-12-19 22:59:00,32.3,28.3,30.13,WSW,257,0.0,0.0,85,0.00,,---,0.20,VWS V14.01,2013-12-20 03:59:00,
2013-12-19 23:00:00,30.5,27.6,30.12,WSW,257,0.0,0.0,89,0.00,,---,0.20,VWS V14.01,2013-12-20 04:00:00,
2013-12-19 23:04:00,32.1,28.1,30.13,WSW,257,0.0,0.0,85,0.00,,---,0.20,VWS V14.01,2013-12-20 04:04:00,
2013-12-19 23:09:00,31.8,27.8,30.13,WSW,257,0.0,0.0,85,0.00,,---,0.20,VWS V14.01,2013-12-20 04:09:00,
2013-12-19 23:14:00,31.6,27.9,30.14,WSW,257,0.0,0.0,86,0.00,,---,0.20,VWS V14.01,2013-12-20 04:14:00,
2013-12-19 23:19:00,31.5,27.8,30.14,WSW,257,0.0,0.0,86,0.00,,---,0.20,VWS V14.01,2013-12-20 04:19:00,
2013-12-19 23:24:00,31.5,28.1,30.13,WSW,257,0.0,0.0,87,0.00,,---,0.20,VWS V14.01,2013-12-20 04:24:00,
2013-12-19 23:29:00,31.5,28.1,30.13,WSW,257,0.0,0.0,87,0.00,,---,0.20,VWS V14.01,2013-12-20 04:29:00,
2013-12-19 23:30:00,30.1,27.5,30.13,WSW,257,0.0,0.0,90,0.00,,---,0.00,VWS V14.01,2013-12-20 04:30:00,
2013-12-19 23:34:00,31.4,28.0,30.13,WSW,257,0.0,0.0,87,0.00,,---,0.20,VWS V14.01,2013-12-20 04:34:00,
2013-12-19 23:39:00,31.2,27.8,30.13,WSW,257,0.0,0.0,87,0.00,,---,0.20,VWS V14.01,2013-12-20 04:39:00,
2013-12-19 23:44:00,31.0,27.9,30.12,WSW,257,0.0,0.0,88,0.00,,---,0.20,VWS V14.01,2013-12-20 04:44:00,
2013-12-19 23:49:00,30.9,27.8,30.12,WSW,257,0.0,0.0,88,0.00,,---,0.20,VWS V14.01,2013-12-20 04:49:00,
2013-12-19 23:54:00,30.7,27.9,30.12,WSW,257,0.0,0.0,89,0.00,,---,0.20,VWS V14.01,2013-12-20 04:54:00,
2013-12-19 23:59:00,30.5,27.6,30.12,WSW,257,0.0,0.0,89,0.00,,---,0.20,VWS V14.01,2013-12-20 04:59:00,